Location: Unspecified
(41.5516°N, 88.1098°W)
Time: 04:30:03
(UTC-05:00)

Hubble Space Telescope - Visible Passes

Search period start: 29 July 2015 00:00
Search period end: 08 August 2015 00:00
Orbit: 542 x 545 km, 28.5° (Epoch: 28 July)

Date Brightness Start Highest point End Pass type
(mag) Time Alt. Az. Time Alt. Az. Time Alt. Az.
04 Aug 3.0 21:17:45 10° S 21:18:35 11° S 21:18:35 11° S visible
05 Aug 2.8 21:08:09 10° SSW 21:09:38 12° S 21:10:23 11° SSE visible
06 Aug 2.8 20:58:50 10° SSW 21:00:38 13° S 21:02:04 11° SSE visible
07 Aug 2.9 20:49:39 10° SSW 20:51:37 13° S 20:53:36 10° SSE visible
